Wind_Gust
13 17 26 34 40 38 27 19 11 10 8 6 7 8 11 11 6 8 8 9 15 14 15 12 18 21 19 17 11 13 11 13 20 20 19 19 20 17 16 17 14 13 13 8 9 8 9 11 12 12 12 13 13 12 14 13 13 13 15 14 13 10 11 14 14 12 15 15 13 12 13 14 10 12 11 12 11 12 11 11 12 12 13 12 13 14
12 17 29 32 26 18 12 8 8 10 9 12 7 6 12 11 14 10 12 7 10 19 5 13 19 18 17 8 6 7 15 20 25 22 20 19 15 13 15 16 13 12 12 12 11 10 11 12 15 14 14 15 16 12 12 14 13 12 12 12 12 10 9 9 10 12 10 10 16 16 13 15 13 13 14 14 11 12 12 12 12 11 12 12 12 13
23 38 38 17 6 8 9 12 12 14 15 14 11 7 6 14 9 7 7 6 5 9 5 15 20 16 10 6 6 10 12 12 13 14 21 21 18 14 13 13 15 17 16 13 11 11 15 16 15 15 14 14 15 15 14 13 13 12 11 10 10 10 10 7 7 10 13 12 11 15 14 14 16 10 10 12 11 12 14 12 11 11 11 11 12 12
26 32 11 11 9 11 9 11 14 14 13 15 9 7 15 7 14 17 10 7 13 16 14 11 19 11 8 7 7 5 10 8 9 11 12 11 19 19 21 20 21 20 22 20 16 15 18 15 15 14 13 14 14 15 13 12 13 12 12 10 10 10 8 8 10 14 13 13 13 12 14 12 14 16 15 13 11 12 14 14 11 12 12 11 12 10
19 5 16 13 13 15 16 10 14 15 19 18 13 9 11 7 12 14 11 9 8 14 24 19 16 7 5 11 10 7 8 13 16 15 12 9 8 9 11 13 18 25 25 25 22 15 18 16 15 15 14 15 14 14 14 13 13 12 11 10 10 9 9 8 14 15 14 18 15 16 16 17 18 13 12 13 11 10 13 13 12 11 11 11 11 10
14 9 20 19 22 20 18 16 19 17 17 18 14 14 9 5 6 6 11 13 10 7 10 28 13 13 6 9 10 13 16 16 17 20 18 16 15 16 17 18 17 17 18 26 25 21 16 19 15 14 16 14 14 14 12 12 11 12 12 12 11 9 9 10 12 14 16 17 20 20 20 17 14 14 11 12 12 9 10 13 9 11 10 10 10 10
14 7 24 23 19 20 20 22 15 14 19 15 21 15 11 11 7 6 8 12 11 20 20 10 24 20 8 15 13 16 16 17 18 19 19 19 20 21 18 19 19 19 17 16 20 21 19 19 15 16 17 14 15 13 12 13 13 11 13 12 11 10 10 9 12 12 15 15 15 15 15 15 16 16 9 8 7 11 10 10 12 11 9 9 10 9
19 17 18 21 21 23 22 28 23 22 19 28 10 19 13 14 13 7 7 10 10 5 6 16 13 23 20 21 14 16 18 19 20 21 20 20 19 18 16 18 18 20 19 21 21 20 20 21 20 18 18 15 15 13 13 13 13 12 12 12 11 10 10 9 10 12 13 17 13 13 12 13 13 13 14 11 10 9 10 12 10 10 10 9 9 10
18 21 18 20 20 25 33 29 11 14 26 19 9 17 14 14 11 9 9 12 8 10 8 15 3 17 19 12 14 20 21 21 23 26 25 23 21 19 19 21 19 19 20 20 22 22 20 20 19 16 18 15 15 14 15 14 13 12 11 11 11 11 10 10 10 12 10 13 14 14 14 14 12 15 13 11 10 11 10 13 9 11 10 11 11 11
21 18 18 17 22 30 20 9 13 18 23 9 11 11 9 7 7 12 12 13 10 10 13 20 14 21 13 10 24 22 19 26 28 28 28 25 24 22 22 19 19 18 17 15 17 17 15 16 15 15 15 15 14 13 14 14 14 13 12 12 12 10 9 9 10 11 11 11 14 14 13 16 15 14 12 11 12 10 10 14 12 11 11 10 12 12
15 14 12 25 30 24 10 9 15 13 9 6 9 11 13 6 4 5 9 13 7 16 22 22 23 18 21 21 30 33 36 38 29 20 21 20 21 21 20 20 21 20 17 16 15 15 14 14 16 17 17 15 14 14 16 14 14 13 12 13 12 9 9 8 10 10 11 12 12 15 15 17 17 14 15 15 12 11 11 15 12 11 10 11 11 11
15 20 24 26 15 16 10 14 10 13 11 8 18 13 7 13 4 4 7 5 19 25 16 17 27 19 25 14 21 29 24 28 34 31 32 29 30 27 21 21 21 19 17 16 16 18 16 17 17 18 17 16 16 16 16 14 14 13 12 14 13 10 10 9 10 12 12 12 12 13 15 16 15 15 15 16 15 12 14 13 13 10 11 11 11 11
20 23 20 11 14 19 21 13 11 14 14 18 15 12 17 14 18 20 12 18 24 33 13 14 18 12 27 19 37 38 29 26 31 35 37 35 31 26 23 22 21 18 17 18 17 18 18 19 19 20 17 17 17 17 16 16 13 13 13 14 15 11 9 11 11 12 10 11 12 14 14 14 14 13 14 15 14 11 14 13 12 11 11 9 12 11
15 9 15 15 10 22 20 28 19 22 24 22 27 20 23 22 20 20 17 16 16 15 9 11 22 27 9 18 25 36 33 34 36 31 31 35 33 29 25 23 21 20 19 18 17 19 17 19 21 21 18 17 18 17 18 16 15 14 14 13 16 12 9 10 12 12 12 11 12 12 14 14 13 13 14 13 15 12 14 13 12 11 10 10 9 10
13 18 23 23 28 21 29 29 22 16 19 28 16 19 16 18 29 26 22 30 22 15 11 7 24 21 13 13 7 33 37 26 24 17 17 18 17 19 21 21 19 19 18 18 18 20 18 18 19 20 19 18 18 18 17 16 15 15 15 14 15 14 10 12 12 12 13 12 12 12 13 13 12 14 14 12 13 15 15 12 13 10 9 11 8 11
18 22 14 22 7 18 21 20 18 14 14 16 14 15 13 25 14 15 18 16 14 11 8 12 21 9 17 7 9 15 14 14 17 18 19 18 16 19 22 23 22 21 21 20 18 20 18 17 18 19 19 18 18 18 17 16 16 16 15 14 13 14 12 13 13 12 14 13 13 13 14 14 14 14 13 12 12 13 14 13 13 11 10 9 9 9
16 22 7 20 13 21 21 17 24 19 32 19 20 28 27 13 11 7 4 4 5 10 18 10 8 8 13 13 15 17 18 15 18 19 22 19 20 21 24 22 21 22 22 21 20 21 21 18 18 20 19 19 19 18 18 16 15 17 17 16 14 12 11 12 12 13 12 14 14 12 13 14 14 14 14 15 13 14 13 14 12 11 9 8 9 10
19 14 9 19 24 17 20 18 16 22 16 20 29 24 10 7 11 15 17 7 8 18 17 6 14 7 9 19 7 11 20 17 21 24 23 20 22 26 26 25 24 24 23 21 18 19 21 20 20 21 17 18 19 18 18 17 13 16 17 17 17 14 15 11 13 13 13 14 14 13 13 12 13 14 13 14 15 13 15 13 12 9 10 9 9 10
8 13 13 11 18 18 9 18 16 14 15 20 28 14 30 19 21 11 13 13 9 16 11 7 8 16 14 15 14 15 23 20 20 21 23 24 25 27 25 23 20 21 23 23 22 22 24 23 21 23 19 19 19 18 17 16 16 15 14 14 16 15 14 13 12 12 11 12 13 12 13 13 12 11 12 12 13 12 14 14 12 10 9 9 10 12
5 12 14 7 21 18 13 17 24 24 18 9 10 22 15 14 14 16 27 12 19 11 8 7 4 16 16 27 29 28 27 29 26 26 30 33 32 30 27 26 25 25 25 25 23 23 24 24 22 23 22 22 22 21 19 18 16 16 15 14 13 13 13 13 13 12 13 10 13 12 11 9 11 11 12 12 13 13 14 13 12 11 10 11 12 12
11 6 12 13 6 17 23 25 26 26 28 21 18 14 22 26 8 14 9 15 14 16 13 15 10 17 19 19 30 30 29 30 34 36 33 31 29 27 27 28 25 25 26 25 23 22 23 23 21 20 20 21 19 18 18 18 19 17 15 15 15 17 14 13 11 12 12 12 12 13 12 12 11 11 12 12 13 13 12 12 11 12 10 12 12 12
14 8 10 6 17 23 26 20 19 20 17 17 21 16 12 16 12 21 22 10 13 16 16 18 16 17 22 16 28 32 32 33 34 36 33 29 29 27 27 24 25 25 24 23 21 21 22 21 21 19 20 20 20 19 18 17 17 16 15 15 15 15 14 15 12 12 12 10 12 11 11 10 10 11 12 13 12 13 13 12 12 11 13 13 9 13
16 6 7 7 18 26 15 4 7 15 12 14 19 16 14 10 17 18 19 13 8 11 11 12 15 18 16 23 26 27 28 29 30 27 28 27 27 25 25 24 22 24 24 25 23 22 21 21 21 23 22 21 21 20 19 17 17 17 15 15 14 16 14 13 13 11 12 12 11 10 10 11 11 12 12 13 11 13 13 12 12 13 15 13 11 11
10 17 11 11 10 6 4 3 10 16 14 6 9 6 12 16 15 19 19 16 22 7 8 6 12 16 9 10 20 23 25 25 25 26 25 23 22 23 24 24 24 22 20 20 20 20 21 20 20 21 21 21 20 20 20 18 16 15 15 15 15 16 14 13 13 13 12 12 11 10 11 11 11 12 12 13 12 13 11 12 12 14 15 12 13 14
24 15 13 9 12 12 7 9 9 5 15 18 17 12 12 10 9 8 12 5 16 14 16 17 16 11 9 7 12 9 10 14 17 12 20 25 21 25 25 24 24 23 23 23 22 21 20 20 22 23 21 21 19 19 19 19 18 17 16 14 15 15 14 14 13 13 13 13 13 11 12 11 12 13 12 12 12 13 12 13 13 14 14 14 14 12
18 9 14 15 17 22 28 27 25 17 23 18 12 15 12 11 9 9 13 10 14 5 7 16 14 18 13 9 16 13 16 13 13 18 17 22 28 27 24 25 25 25 26 25 24 23 24 24 23 22 20 20 20 20 19 18 18 17 16 14 13 16 15 14 12 13 14 13 14 12 12 11 11 12 12 12 12 13 13 14 13 14 13 15 15 13
11 7 9 15 18 19 19 17 11 9 11 23 9 13 8 6 8 10 12 11 19 10 11 12 14 9 7 12 16 17 20 23 22 19 22 20 16 22 26 28 28 27 27 27 26 25 21 20 23 23 22 21 20 19 19 20 18 17 16 15 13 13 15 13 14 13 14 13 13 13 12 11 11 13 12 12 12 12 14 14 14 15 14 14 15 14
8 9 9 10 13 18 15 8 7 10 12 8 10 10 7 10 12 10 13 17 11 18 8 10 7 17 15 14 20 21 17 17 21 24 20 19 23 26 25 24 20 23 21 21 21 24 26 25 23 23 24 23 21 20 19 18 20 20 20 19 15 14 14 13 15 14 14 14 14 13 12 11 11 12 13 12 12 12 13 13 14 14 13 14 15 13
10 14 7 5 3 5 9 5 6 8 9 13 12 11 9 9 9 11 9 9 11 14 18 10 9 16 16 24 26 27 28 28 27 29 29 26 24 20 21 23 26 26 26 26 27 26 25 26 25 24 23 25 25 23 20 19 18 15 15 15 16 15 14 15 16 15 15 14 15 13 12 11 10 12 13 13 14 13 13 13 13 14 14 14 14 13
11 8 5 3 3 3 4 5 7 11 5 9 11 12 11 13 12 11 9 8 14 8 13 13 16 18 22 22 24 29 28 27 21 17 17 21 25 27 27 27 27 28 29 29 28 27 26 25 24 24 23 23 25 26 23 20 20 20 20 19 17 16 14 17 16 17 16 15 14 13 12 12 11 13 14 14 14 13 13 13 13 14 14 14 13 11
12 15 5 5 6 4 6 5 10 9 10 8 6 8 10 8 7 7 8 6 8 5 6 12 13 16 13 8 12 10 14 16 19 24 28 27 26 27 28 27 27 28 27 27 25 25 24 24 24 23 23 25 26 26 26 23 20 19 19 19 18 18 17 16 16 16 17 16 14 14 13 13 13 14 14 13 14 13 14 14 14 15 14 13 11 11
10 10 7 8 6 7 8 8 4 10 8 6 8 10 8 9 8 7 11 11 10 8 7 9 10 16 9 12 11 16 18 24 27 23 22 22 25 28 29 28 28 26 27 27 26 25 25 26 26 26 25 25 26 25 24 23 22 21 21 20 20 18 17 17 17 18 17 16 15 15 15 14 14 14 14 14 15 14 14 14 15 14 13 13 12 10
9 7 6 5 8 5 9 5 7 7 8 6 11 14 14 7 5 4 5 5 10 16 15 13 18 15 19 20 19 16 22 20 19 24 24 22 25 29 31 31 31 30 30 29 28 28 29 29 28 26 23 23 27 28 25 24 23 23 22 23 21 19 19 19 18 17 17 16 16 15 15 14 15 15 14 14 15 14 15 15 14 14 14 13 11 9
8 14 6 4 7 4 8 9 6 12 10 16 13 8 10 11 12 8 8 10 8 16 20 17 16 8 16 20 27 21 21 27 31 27 30 36 31 25 24 27 30 30 28 28 29 29 28 26 24 24 23 24 23 23 23 26 29 25 22 22 19 21 20 20 19 18 17 16 16 16 15 15 16 15 15 15 15 15 15 15 14 12 12 13 10 10
9 10 8 4 5 5 7 9 10 9 17 12 9 7 8 9 10 13 7 4 8 3 13 11 9 15 21 26 29 29 30 29 24 25 20 24 31 33 33 28 25 25 27 26 25 24 25 25 23 22 21 21 21 21 20 17 16 19 20 21 22 20 21 19 19 18 18 17 16 16 16 16 16 16 15 16 16 15 14 14 13 13 13 13 12 11
10 14 12 7 6 5 8 8 14 14 10 10 15 11 6 7 7 11 4 3 3 8 16 18 20 20 19 16 20 28 28 21 18 21 28 26 28 32 30 29 28 27 29 29 30 29 27 26 27 26 25 22 21 22 23 22 22 23 23 21 21 20 19 19 19 18 17 18 17 17 17 18 17 17 16 16 16 16 15 14 15 15 12 12 10 8
17 16 12 5 6 8 7 6 11 11 9 5 6 7 10 8 14 18 11 6 4 5 7 17 16 16 16 16 9 11 14 16 15 8 6 18 24 24 34 32 31 32 32 28 28 29 28 26 25 24 24 22 22 23 22 21 22 22 22 21 20 20 20 20 21 20 20 18 18 18 18 18 19 18 17 17 17 16 16 15 13 12 12 13 11 11
14 20 13 11 7 8 9 5 9 12 12 13 13 11 7 4 4 7 16 5 8 8 7 12 20 19 18 9 10 14 16 20 9 16 15 13 15 16 14 19 26 27 25 23 20 19 21 21 22 23 26 23 24 24 23 23 23 22 22 21 20 21 21 21 21 21 20 20 19 18 18 18 19 19 18 17 18 17 15 13 12 13 13 15 13 12
12 19 15 14 8 5 7 9 10 13 15 14 13 11 11 5 6 6 14 8 12 5 7 11 14 19 21 20 17 20 23 22 22 24 21 19 18 18 20 20 20 21 23 26 28 26 23 24 25 24 22 24 25 24 24 25 26 26 24 22 22 21 22 22 21 22 22 20 19 18 17 17 18 19 18 17 16 17 16 15 16 13 12 13 11 12
15 9 12 10 8 3 7 6 6 14 12 8 9 13 10 4 6 13 17 17 10 8 5 9 12 10 10 20 23 24 28 24 24 28 20 27 27 26 28 25 23 21 20 21 21 26 26 24 25 23 25 26 25 25 26 25 26 24 25 23 21 22 23 23 22 20 18 18 18 18 17 17 18 17 18 17 14 14 15 14 14 13 13 11 12 12
10 9 9 14 8 4 6 5 7 14 15 8 10 13 7 3 13 15 20 14 9 8 6 8 11 12 13 14 21 26 22 28 32 27 21 19 15 12 13 20 27 27 27 26 25 20 24 26 28 28 26 24 24 24 25 26 25 23 22 22 21 23 22 19 18 19 19 19 18 18 18 18 18 18 15 16 16 15 14 14 15 13 13 13 12 12
4 10 6 10 8 9 7 8 15 14 14 7 13 8 7 8 8 8 14 8 3 5 6 6 9 13 19 24 18 19 27 8 12 14 20 26 32 28 21 19 17 16 18 23 25 26 24 24 22 21 21 20 26 25 24 24 25 23 22 21 23 20 17 18 19 19 18 19 19 18 17 17 15 16 17 15 16 16 14 12 14 14 13 13 13 13
17 15 10 11 11 7 7 7 5 12 9 6 12 6 8 12 13 11 5 2 5 5 4 4 10 12 17 23 22 20 10 5 12 19 22 21 21 22 24 25 26 26 26 23 22 22 26 24 23 23 21 22 24 24 24 24 23 21 21 24 22 19 20 20 19 19 19 19 19 19 18 17 18 17 16 16 16 17 16 14 14 12 13 14 12 13
9 16 9 9 15 17 10 14 14 13 14 9 4 9 6 7 9 7 8 3 3 4 3 5 5 11 16 21 23 19 12 13 8 16 18 20 21 19 20 21 21 21 22 24 28 26 25 24 23 22 19 22 23 23 24 26 24 22 23 23 18 18 18 19 19 19 20 19 19 19 18 18 18 17 16 17 17 16 17 15 14 14 15 15 14 13
9 9 16 14 10 11 12 12 9 7 10 9 6 6 3 4 3 8 9 5 4 6 4 7 4 6 13 10 16 19 13 15 21 23 26 23 22 24 25 27 28 27 26 26 25 24 23 26 24 21 20 22 23 23 23 23 26 23 23 19 19 21 21 21 21 21 21 20 20 20 18 17 18 17 17 17 18 18 17 15 15 17 14 15 14 13
2 4 6 14 7 5 7 6 3 3 4 9 7 5 6 5 5 8 10 12 8 4 5 3 6 9 8 7 12 7 11 14 16 17 19 24 24 19 17 17 16 18 21 21 21 24 22 22 22 22 23 20 23 23 22 22 24 26 24 19 21 22 22 22 22 21 21 20 19 19 19 19 17 16 17 17 17 19 18 19 18 17 16 15 15 14
6 3 5 12 5 12 11 8 7 6 3 5 5 5 6 7 7 5 8 7 4 6 7 5 5 7 9 10 9 10 6 10 13 12 13 16 18 21 24 24 23 25 27 26 24 23 23 22 24 24 23 23 20 22 22 21 21 22 20 22 21 22 22 22 23 21 20 21 19 18 19 20 19 17 17 17 15 15 16 16 16 16 16 15 16 15
5 6 14 6 6 8 11 10 7 6 8 8 7 5 8 8 9 8 4 3 4 4 4 3 5 7 5 8 9 13 10 9 15 14 16 18 20 21 22 22 23 20 20 22 24 23 22 24 23 24 24 25 22 20 21 20 19 19 20 21 21 22 22 22 23 24 22 22 20 20 20 20 17 19 17 17 17 16 15 15 15 17 19 20 19 17
7 8 9 6 9 3 3 3 3 3 9 9 6 3 2 3 8 8 8 9 9 10 7 7 6 3 6 11 8 13 11 7 11 18 18 15 16 18 19 21 22 23 22 22 22 22 26 24 25 24 24 23 20 20 20 19 18 20 22 22 21 23 24 23 20 21 19 19 19 19 18 18 19 19 19 17 15 16 20 21 19 18 14 13 14 16
7 5 3 10 11 7 15 12 8 12 6 2 2 4 6 4 9 8 9 11 10 9 8 9 9 7 7 7 11 13 14 10 8 13 17 18 19 16 15 17 19 20 21 22 24 21 21 22 25 25 24 21 19 20 20 19 19 20 22 22 21 23 24 23 22 20 20 19 19 18 17 17 18 18 18 18 17 14 8 7 7 13 18 16 11 14
8 7 10 12 19 14 12 8 5 7 8 7 5 5 5 3 8 11 7 5 5 4 4 9 8 9 8 5 3 12 12 15 12 13 15 14 15 18 22 23 22 20 22 22 20 19 20 20 21 22 21 21 19 20 20 20 20 21 21 22 22 23 24 24 22 20 19 19 19 20 20 19 18 18 17 17 17 15 15 9 5 8 8 6 11 14
Wind_Speed
4 8 12 16 19 22 19 12 7 3 2 3 3 5 6 6 2 4 4 5 7 6 9 7 6 10 11 11 7 8 5 4 8 12 10 12 13 12 10 11 8 7 6 4 5 5 6 8 7 7 7 8 8 7 7 7 6 6 6 6 6 4 5 7 7 6 7 7 6 6 6 7 5 6 6 6 5 6 6 5 5 5 5 4 4 4
6 8 14 19 14 9 8 5 4 7 3 2 0 3 5 6 7 4 6 3 6 7 1 2 9 10 11 5 4 4 7 11 13 14 14 13 11 8 10 11 8 7 4 6 6 7 7 8 9 8 8 10 10 8 8 9 7 7 6 6 6 4 3 3 5 6 5 4 5 6 6 7 5 6 6 6 5 5 5 5 5 5 4 4 5 4
9 17 19 8 3 5 6 7 7 9 10 3 2 2 0 4 3 5 4 2 1 3 0 6 9 8 6 4 4 6 7 5 7 8 12 13 12 10 8 8 10 8 9 8 7 8 8 9 9 8 7 7 9 10 8 7 8 8 7 6 6 5 4 3 4 6 7 6 5 7 5 7 6 4 4 5 5 5 6 6 5 4 4 5 5 5
10 14 3 8 6 7 4 7 9 8 8 6 3 3 5 3 6 6 2 5 7 3 7 4 10 5 4 4 4 3 6 3 4 4 5 7 11 12 13 12 13 11 12 13 10 8 10 9 9 8 8 7 7 8 8 7 7 6 6 6 6 5 4 4 5 7 7 8 8 8 7 6 6 6 5 6 5 5 6 7 5 5 4 5 5 5
8 1 10 7 8 9 8 5 10 8 9 7 5 3 3 2 1 3 4 3 3 7 10 11 7 1 3 5 4 4 3 6 5 5 5 5 5 5 5 7 9 14 13 12 9 8 11 11 10 9 8 9 8 8 8 8 7 5 7 6 6 5 5 5 8 9 8 10 9 9 8 9 8 5 5 5 5 4 4 5 6 5 5 5 5 5
8 6 5 12 10 8 7 7 10 10 8 4 4 8 5 2 3 0 1 7 4 3 5 7 3 3 3 5 5 6 5 7 7 8 9 9 7 8 10 9 9 7 7 11 9 9 11 10 9 9 9 9 8 9 7 7 6 7 6 7 6 5 5 6 8 9 9 9 11 10 9 8 6 5 4 4 4 3 4 4 2 5 5 5 5 5
5 4 6 13 11 11 11 11 9 8 7 6 7 10 6 4 1 2 4 4 4 5 7 1 7 4 4 7 7 8 8 8 7 11 11 10 9 9 9 10 11 11 10 9 7 7 13 12 10 10 10 9 9 8 7 7 7 6 6 7 7 6 5 6 7 8 9 9 8 9 8 7 7 7 3 3 4 4 4 4 5 5 5 5 5 5
5 10 5 4 13 12 11 13 9 13 8 5 3 13 9 6 5 3 3 4 1 1 2 2 1 5 3 9 7 9 10 9 9 11 12 11 11 11 10 11 11 11 11 13 12 7 12 13 14 13 11 9 9 8 8 8 7 7 7 7 7 6 6 5 6 7 8 10 8 8 7 6 6 5 6 5 4 3 3 6 5 5 5 5 5 5
9 9 8 7 8 12 15 15 6 7 6 2 4 12 9 9 6 4 3 2 1 5 1 5 1 2 5 3 9 10 10 11 13 15 15 13 12 12 12 11 12 12 12 13 13 11 9 12 10 10 10 9 9 9 9 8 8 7 7 7 6 5 6 6 7 8 6 8 8 8 8 7 5 6 6 5 4 5 4 6 5 5 5 5 5 5
5 10 10 7 7 12 10 5 9 11 7 3 7 7 5 4 4 6 5 4 1 1 5 8 5 4 4 3 9 10 10 13 15 18 15 15 15 14 12 12 11 10 10 10 11 11 7 7 8 9 9 9 8 8 9 9 8 7 7 8 8 6 5 5 6 7 7 7 8 8 8 10 7 6 6 4 5 5 4 6 5 4 5 5 5 5
2 8 8 7 10 6 4 6 6 8 4 3 5 4 2 3 1 1 2 2 2 4 10 9 11 8 5 6 13 14 13 18 16 9 9 11 13 14 13 13 12 11 10 9 9 9 8 6 8 10 11 9 8 8 9 9 8 8 7 8 8 6 5 5 6 7 8 7 7 8 9 10 10 8 8 7 6 5 5 6 4 4 4 3 5 5
8 3 8 5 6 3 6 4 5 8 7 5 3 4 3 2 2 1 1 1 3 8 7 6 13 11 8 2 8 14 15 16 15 18 19 19 19 16 13 12 13 12 10 9 9 10 11 10 11 9 10 10 9 10 10 8 9 8 7 8 9 6 6 5 6 7 7 7 7 8 10 10 9 9 7 8 7 6 6 5 5 3 4 3 4 5
10 10 3 1 8 10 6 6 4 7 7 8 6 7 8 2 3 3 1 1 8 11 3 8 10 0 11 5 13 21 19 13 17 17 19 21 20 17 15 15 12 11 11 10 10 10 11 11 11 11 10 10 10 10 10 9 8 8 8 9 10 7 5 6 6 7 6 7 7 8 9 9 8 7 8 8 7 6 7 6 5 5 5 3 5 5
6 2 4 4 5 9 9 11 6 8 10 11 10 9 10 5 5 6 5 1 5 5 5 4 10 7 2 8 9 16 21 18 17 18 16 18 19 19 16 14 12 12 11 10 9 11 9 12 12 13 12 10 9 10 10 10 9 8 8 8 10 8 5 6 6 7 7 7 7 8 9 8 8 8 8 7 8 6 5 6 5 5 5 5 4 4
5 6 8 9 8 10 12 13 11 5 10 10 4 8 7 5 5 7 5 10 8 7 2 1 6 4 4 5 2 14 17 16 9 2 3 4 4 6 8 9 11 11 11 10 8 11 10 10 12 11 10 10 9 10 10 9 9 9 9 9 10 9 6 7 7 7 8 7 8 8 8 8 7 8 7 6 6 7 7 5 6 5 4 5 4 5
10 5 7 9 2 10 11 6 5 7 7 4 5 6 5 11 6 4 6 5 4 3 1 2 4 4 7 2 5 4 6 6 8 8 9 10 10 10 10 11 12 12 11 10 9 11 12 10 11 11 11 10 10 11 10 11 9 9 9 9 9 9 7 7 7 7 8 8 7 8 9 9 9 8 7 6 5 5 6 7 7 6 4 5 4 3
4 5 2 7 7 11 11 8 6 8 9 5 8 10 12 5 4 2 1 0 2 3 5 1 2 2 6 5 4 1 9 8 9 9 11 11 13 13 12 12 12 12 11 11 10 11 13 10 10 11 12 11 11 10 11 10 9 11 11 10 9 8 6 7 7 8 8 8 9 8 9 9 9 9 9 8 7 7 5 7 7 6 5 4 4 5
7 4 4 6 12 7 7 10 5 6 7 6 8 8 4 4 5 3 5 1 1 4 4 2 7 2 3 5 2 3 10 8 12 12 12 12 13 15 13 13 13 12 12 12 10 11 11 10 11 10 10 11 12 12 11 10 7 10 10 11 11 8 9 7 8 8 8 9 9 8 8 8 8 8 8 8 9 7 7 7 7 6 6 4 4 4
0 1 4 6 10 4 0 8 5 5 6 11 12 6 9 4 8 3 2 3 1 2 2 2 2 3 7 4 4 6 12 11 11 10 12 14 15 16 14 13 12 11 10 11 12 12 12 11 12 11 11 10 11 12 11 9 8 9 9 9 10 10 8 8 7 7 6 7 7 7 8 8 8 7 7 6 7 7 8 8 7 6 5 5 4 5
1 1 2 0 9 6 3 7 10 10 8 1 6 9 6 5 3 4 6 3 4 3 2 3 2 4 5 5 13 16 15 17 15 13 16 18 19 16 14 14 15 14 12 12 12 13 14 12 12 13 14 12 12 12 11 10 8 10 9 9 8 8 7 7 8 8 8 6 8 7 7 6 7 7 7 6 7 7 8 8 8 6 6 5 5 5
3 2 2 3 2 8 7 6 12 13 13 8 4 5 6 5 2 4 1 4 4 4 3 3 1 6 9 7 12 15 17 17 19 19 17 16 16 16 16 15 14 14 13 12 12 12 14 13 11 11 12 12 11 10 10 9 10 9 9 9 10 11 9 8 7 8 7 7 7 8 8 7 7 7 6 6 6 8 8 7 6 6 6 5 5 5
2 1 3 1 4 8 12 8 8 9 9 8 8 6 5 8 4 10 9 2 2 1 2 4 4 7 10 4 13 15 15 16 18 20 18 17 17 17 15 15 14 13 13 13 12 11 12 11 11 11 11 11 11 11 11 9 10 10 9 9 9 9 9 10 8 7 7 6 7 8 7 7 6 7 7 8 7 8 8 7 7 6 6 7 4 6
5 1 1 3 6 12 8 1 4 8 7 7 10 7 7 3 7 4 5 4 1 2 5 3 2 8 7 6 10 12 10 15 18 17 16 13 15 15 14 14 13 13 13 13 12 12 11 11 12 12 14 13 12 12 11 10 9 9 9 9 9 10 9 8 8 7 7 7 7 7 6 7 6 7 8 9 7 8 8 7 6 6 8 6 5 5
3 3 4 5 5 2 0 2 6 11 8 2 3 2 6 6 7 8 7 7 8 1 1 0 2 4 3 2 4 5 6 4 4 9 10 9 10 12 14 15 14 13 12 11 10 10 11 11 11 11 13 13 11 12 12 10 9 9 9 9 9 10 10 8 8 7 7 7 7 7 7 7 6 7 7 8 7 9 7 7 6 6 8 6 5 7
3 3 3 3 1 3 2 3 3 0 5 4 4 4 7 5 6 3 4 1 5 7 9 7 5 3 2 4 3 6 6 6 8 5 7 10 10 12 14 13 13 13 13 13 13 12 12 12 13 12 12 12 11 10 11 11 10 9 9 8 9 9 9 8 7 8 8 8 8 7 8 7 7 7 7 8 7 9 8 7 7 6 7 7 6 5
7 3 5 3 4 6 7 7 7 7 11 5 4 8 6 7 6 4 5 2 5 1 4 5 4 9 7 2 3 5 7 5 4 4 4 7 12 15 14 13 13 14 14 15 14 14 14 13 12 12 12 11 12 11 11 11 10 9 9 8 8 10 9 8 7 8 8 8 9 8 8 7 7 8 8 8 8 8 8 7 6 6 5 7 8 6
1 1 4 7 7 8 8 5 3 2 3 8 5 9 3 2 3 4 5 5 8 4 6 6 7 5 4 0 4 6 9 10 9 9 12 12 11 10 11 12 13 13 15 16 15 13 12 12 14 14 13 12 12 11 11 11 10 9 9 9 7 8 9 8 8 8 8 8 8 8 7 7 7 8 8 8 8 7 7 7 6 6 6 5 7 7
0 1 5 6 8 11 10 4 4 5 6 2 6 6 5 7 7 6 6 6 4 10 3 3 4 6 9 5 6 8 9 7 8 10 11 10 13 15 14 12 11 11 11 11 12 14 15 15 14 14 14 13 12 11 10 9 10 11 11 11 9 9 8 7 9 9 8 8 8 8 8 7 7 8 8 7 8 7 7 7 6 6 5 6 7 6
1 3 3 3 2 3 5 4 4 5 5 7 7 7 6 6 6 7 5 5 7 5 8 4 6 7 7 11 13 14 15 16 17 16 12 11 11 11 12 13 14 14 15 15 16 16 15 15 14 15 14 13 13 13 12 10 9 8 8 9 9 9 9 9 10 9 9 9 9 8 7 7 6 7 8 8 8 8 7 7 7 6 6 6 6 5
1 3 3 1 1 1 2 1 2 7 2 5 7 8 8 9 8 7 5 4 9 4 7 7 10 12 9 10 14 15 13 12 8 8 9 13 15 15 16 14 15 14 15 16 16 16 15 15 15 15 14 13 14 14 13 11 10 10 11 10 9 9 9 10 10 10 10 9 9 8 7 7 7 7 8 9 9 8 8 7 7 7 7 6 6 5
2 5 4 0 2 0 2 2 3 6 7 2 2 3 7 6 5 3 2 1 2 4 0 5 6 9 6 2 2 5 7 9 10 12 14 14 14 16 16 15 15 15 16 16 16 15 15 15 14 14 14 15 15 15 14 12 11 10 10 10 10 11 10 10 10 9 10 10 9 8 8 8 7 8 9 8 8 8 8 8 7 7 7 7 6 6
4 4 2 2 2 1 2 4 2 2 5 4 1 3 4 5 5 2 2 5 4 3 3 6 4 7 4 1 6 6 8 13 15 14 11 11 14 16 17 17 17 16 16 16 15 14 14 15 16 16 16 15 14 14 12 12 12 12 12 11 10 10 10 10 10 10 9 10 9 9 9 8 8 9 9 9 9 9 8 8 8 7 7 7 6 5
1 1 0 1 2 1 3 1 3 4 5 2 3 6 9 1 0 1 1 2 3 8 7 6 8 8 5 7 10 8 12 11 11 14 14 13 15 17 19 18 18 17 18 17 17 17 17 18 18 16 15 14 14 14 13 13 13 13 12 12 10 10 10 10 10 10 10 10 10 9 9 9 9 9 9 9 9 9 8 8 8 7 7 7 5 5
2 2 1 1 1 1 5 5 2 4 4 4 3 3 6 5 5 4 2 5 5 6 6 7 7 2 5 6 12 11 12 14 17 17 18 20 16 14 14 15 17 18 17 17 17 18 17 14 12 13 15 15 15 14 12 13 14 13 13 13 11 11 10 11 10 10 10 10 10 10 9 9 10 9 9 9 9 9 9 8 8 7 6 6 5 6
1 0 1 1 1 1 4 4 3 3 5 4 2 4 2 2 7 8 3 2 3 1 2 3 1 7 11 12 14 16 17 17 11 13 12 12 17 19 20 17 15 14 15 16 15 14 13 14 13 12 13 13 13 11 10 7 5 6 7 9 11 10 11 10 11 10 10 10 10 10 9 10 10 10 9 10 10 9 9 8 7 7 6 6 7 7
1 3 2 3 1 0 2 3 2 4 4 5 8 2 2 4 1 5 2 2 0 4 2 4 9 9 11 9 4 2 3 4 4 3 9 13 16 16 16 16 17 16 16 16 18 17 16 16 17 17 16 13 13 12 11 11 10 12 11 10 11 10 10 11 11 11 10 11 10 11 10 11 10 10 10 10 10 10 9 8 9 8 6 6 5 4
8 3 4 1 1 1 1 0 4 3 3 2 2 3 2 2 6 8 4 2 0 2 4 3 6 6 5 1 4 6 9 7 5 3 3 8 10 11 17 19 18 19 19 18 18 18 18 16 15 14 13 13 13 13 12 11 11 10 10 11 10 11 10 10 11 11 11 11 11 11 11 11 11 11 11 10 10 10 9 9 8 7 6 7 6 5
4 5 2 3 2 2 1 1 2 3 0 5 5 5 3 0 1 4 8 1 3 3 4 4 6 9 7 5 6 8 8 8 2 8 9 8 9 9 6 5 9 14 15 14 11 10 10 11 11 11 13 14 13 12 12 12 12 12 11 10 10 11 11 11 12 12 12 11 11 11 11 11 12 11 11 10 11 10 9 8 7 7 6 8 7 6
7 7 7 4 1 1 1 1 1 3 3 5 8 7 5 1 4 3 5 3 3 2 3 7 8 6 13 12 8 9 8 6 9 11 10 11 10 11 12 12 12 10 10 12 15 15 13 12 14 14 13 14 14 12 13 13 14 13 13 12 11 11 11 12 12 12 12 11 11 10 10 10 11 11 11 10 10 10 10 9 9 7 6 6 6 6
5 3 5 4 2 1 1 1 1 2 0 1 5 7 4 1 3 5 5 4 3 3 2 5 7 6 4 7 13 12 12 9 8 12 9 16 16 15 17 16 13 11 11 10 8 11 14 13 13 13 14 15 14 14 15 15 13 13 13 12 12 12 12 13 12 10 9 10 10 10 9 9 10 10 11 10 9 8 9 7 7 8 7 6 6 6
2 1 4 6 2 1 3 1 1 3 5 4 5 7 5 1 3 5 7 4 3 3 2 5 6 7 7 7 7 10 10 13 11 5 9 11 8 6 5 6 9 12 13 13 12 12 11 13 16 17 17 14 14 14 14 14 14 13 12 12 12 13 13 11 10 10 10 10 10 10 10 9 10 11 9 9 9 8 8 8 8 8 7 7 6 5
1 3 3 4 2 2 1 1 2 3 7 3 6 5 2 1 1 2 4 2 1 1 1 3 6 7 9 9 9 10 13 3 8 7 12 15 20 17 13 10 9 7 5 7 12 14 13 12 12 12 11 12 14 15 14 14 14 13 13 12 13 13 9 10 11 10 11 11 11 11 10 10 9 10 9 8 9 9 8 6 8 8 7 7 6 6
6 4 3 4 2 2 2 2 1 1 2 0 7 3 3 1 4 3 1 1 2 1 2 1 4 7 9 11 10 10 3 1 2 6 10 10 11 12 14 15 16 16 15 13 12 12 14 13 13 14 13 12 14 14 14 15 15 13 12 14 14 10 11 11 11 11 11 11 11 11 10 10 11 10 8 9 9 10 9 7 8 7 8 8 7 7
3 4 1 2 5 6 2 2 2 4 2 2 1 2 2 3 2 3 3 1 1 0 2 2 2 6 9 10 13 12 5 2 1 4 6 7 8 8 8 8 7 9 10 12 15 15 14 13 13 13 11 12 13 13 14 15 14 13 13 15 10 10 10 11 11 11 11 10 11 10 10 10 11 10 9 10 10 10 10 8 8 8 8 8 8 7
2 1 6 6 4 2 2 3 3 3 4 4 2 3 2 2 1 4 2 1 1 0 2 3 3 4 8 7 8 8 6 7 6 8 12 12 12 13 15 16 18 18 16 16 15 14 14 15 15 13 12 12 14 13 14 13 15 14 15 10 10 12 13 12 12 11 11 11 11 11 10 9 10 10 10 10 11 10 9 9 9 8 7 8 7 7
1 1 1 5 1 2 1 2 0 1 1 3 2 3 1 2 3 2 1 3 1 2 3 2 4 5 5 4 4 3 4 1 3 6 5 8 11 10 8 8 8 9 11 12 12 14 13 12 12 13 13 12 13 13 13 13 14 17 14 11 12 12 13 13 13 12 12 11 10 11 11 11 10 10 10 10 9 10 10 11 10 9 8 7 7 7
3 0 1 2 1 4 2 2 1 1 2 2 1 2 1 0 0 1 0 1 0 1 0 1 3 5 6 6 6 5 2 4 5 2 3 5 8 10 14 15 14 15 17 17 15 14 12 12 12 13 13 13 12 12 12 13 12 13 11 13 12 12 13 13 13 12 11 11 11 10 11 12 10 9 9 10 8 8 8 8 8 8 8 8 8 8
1 1 5 1 3 2 3 4 3 3 4 5 4 1 3 2 2 1 1 1 1 1 2 2 1 3 3 5 5 6 5 6 8 7 7 7 8 8 9 9 10 9 8 10 12 14 12 13 13 13 13 13 12 12 12 12 11 10 10 10 11 12 13 13 13 13 12 13 11 10 11 11 13 13 9 9 9 9 8 8 8 8 10 10 10 9
2 2 3 2 2 1 2 2 2 0 3 3 1 0 1 2 1 4 4 5 5 6 4 5 4 1 2 5 4 7 6 4 6 8 8 7 7 8 10 12 12 13 13 12 12 13 14 13 14 15 14 13 11 11 11 10 9 10 12 12 12 13 13 12 12 11 11 11 10 10 9 9 10 10 10 9 9 9 10 11 10 9 8 6 6 8
1 2 0 4 5 2 7 6 4 4 1 1 1 2 3 2 1 4 5 7 6 6 5 6 6 5 5 2 2 5 7 5 5 7 9 9 10 9 7 8 8 10 10 10 11 11 12 13 14 14 13 11 11 11 11 10 8 10 11 12 12 13 13 12 11 11 11 10 10 10 9 8 9 9 9 10 9 8 4 2 6 9 8 8 9 12
2 3 4 4 7 5 6 5 3 2 3 4 2 3 3 2 3 7 5 3 4 3 4 6 6 6 5 3 1 3 5 6 5 5 6 5 6 7 10 13 12 10 10 11 10 9 10 10 11 12 12 11 10 11 11 10 9 10 10 11 12 13 13 13 11 10 9 10 10 11 11 10 9 9 9 8 9 8 8 5 2 4 1 5 10 12
Wind_Direction
145 174 186 198 205 202 201 195 194 235 55 125 114 136 173 176 249 253 244 216 170 156 201 192 142 154 168 171 175 168 144 151 165 167 173 174 173 177 177 175 172 170 162 152 131 123 125 125 123 118 110 108 107 108 118 119 122 128 131 132 130 136 142 134 131 125 126 117 90 84 98 101 98 95 87 74 65 70 65 60 56 53 49 51 61 58
138 201 219 213 209 203 189 155 162 263 270 111 143 130 188 174 202 222 211 242 199 174 342 116 133 165 166 150 146 143 161 190 181 174 180 177 176 169 169 171 169 160 130 141 132 138 136 135 132 124 120 125 129 137 136 140 139 138 142 140 137 138 141 126 125 129 108 67 102 121 117 112 98 95 93 90 73 76 74 69 64 55 48 53 55 57
198 210 217 203 131 124 131 159 175 201 245 220 151 185 120 255 220 276 246 312 335 97 275 155 130 161 148 120 122 171 186 191 205 204 184 170 171 171 176 170 161 157 162 162 158 155 146 134 131 127 131 141 140 141 144 138 133 143 147 143 143 148 140 118 108 87 83 102 118 116 120 116 100 57 79 89 81 79 77 67 65 62 55 59 56 52
207 236 166 150 130 136 162 160 165 189 228 230 164 136 198 237 152 225 271 43 5 132 166 156 124 136 98 93 124 160 183 179 204 213 200 198 180 179 184 176 168 171 173 176 169 155 146 130 133 134 142 137 134 141 139 139 140 146 146 147 146 142 127 121 97 89 117 115 104 98 107 94 96 113 91 83 70 64 67 60 52 51 54 55 61 58
195 330 147 133 157 175 185 167 163 172 208 225 180 140 175 248 262 140 215 100 70 40 107 95 77 56 145 154 166 179 150 153 189 198 205 210 221 210 188 186 189 179 176 169 158 155 152 147 142 148 143 139 145 148 147 149 155 156 148 142 141 135 129 116 113 122 127 116 104 102 92 95 93 74 83 77 57 46 66 67 45 33 38 51 53 51
262 272 137 152 178 187 180 192 195 166 205 213 213 171 177 185 237 307 168 127 34 11 291 136 55 289 173 206 193 164 156 180 183 201 207 205 196 190 194 192 189 194 191 176 167 168 149 116 142 153 146 148 149 150 152 152 146 141 138 133 128 123 119 120 129 135 135 130 130 129 125 121 113 112 105 105 115 80 58 66 49 44 37 44 52 45
212 266 189 171 170 189 200 206 204 163 190 173 247 163 181 181 148 169 191 122 173 183 236 271 164 254 173 218 193 172 183 186 182 207 211 204 197 197 196 190 191 186 176 185 188 172 154 157 153 156 159 155 148 147 141 136 133 134 138 135 135 132 126 130 137 142 133 128 132 134 133 134 138 131 85 78 82 94 78 66 56 45 36 35 51 47
168 221 226 201 174 186 202 215 203 183 150 211 212 156 177 158 191 215 170 195 196 178 122 99 121 153 209 226 183 177 178 184 194 212 214 207 202 199 198 196 193 187 182 183 189 187 166 166 169 163 157 152 148 137 135 135 135 139 138 133 129 130 133 136 138 137 140 136 138 127 121 120 122 123 124 119 106 90 86 72 53 50 41 34 36 47
170 203 208 203 194 188 206 209 167 163 162 216 191 151 159 175 187 203 179 195 165 112 201 234 180 85 230 243 163 167 186 191 201 213 211 203 204 203 201 198 197 191 186 186 188 188 174 166 168 159 152 143 137 140 142 143 140 134 129 123 119 125 136 136 140 135 134 135 135 130 126 117 108 115 116 115 102 92 80 80 55 58 47 45 41 46
183 201 205 191 191 210 209 155 163 173 161 248 144 118 130 142 179 180 200 218 251 117 251 211 188 170 276 211 178 182 200 205 210 209 205 199 201 202 199 199 196 190 186 190 196 188 177 156 152 150 138 138 143 137 135 133 132 133 129 128 130 147 135 135 134 131 129 130 128 126 128 127 126 118 103 98 100 91 85 81 65 53 54 49 53 49
211 187 174 185 209 206 126 177 151 164 186 186 88 110 76 52 100 133 101 121 54 241 235 195 190 172 244 209 191 178 203 207 206 196 199 198 202 207 204 196 190 189 185 186 187 183 179 155 139 141 142 139 138 135 135 135 135 137 139 136 135 140 125 128 133 133 133 133 134 133 137 136 135 131 128 120 102 98 82 85 71 64 53 48 58 62
257 270 189 206 163 148 144 171 166 162 193 151 133 147 112 325 5 37 2 67 182 251 238 188 186 181 211 272 205 215 220 210 192 194 193 193 199 199 192 193 192 190 187 181 176 169 167 155 146 142 138 145 142 140 140 140 138 143 142 138 132 131 130 128 132 129 135 138 135 136 139 138 137 137 133 126 123 114 109 107 102 83 69 54 57 59
251 236 271 218 163 165 173 161 191 164 180 180 110 124 151 236 149 268 99 259 212 221 247 181 166 215 234 216 197 204 216 202 203 203 195 191 194 191 187 187 187 186 184 179 174 178 165 158 153 142 146 147 152 150 145 141 138 139 141 142 134 134 134 133 132 131 132 130 135 138 134 128 127 124 124 124 122 130 128 131 122 113 104 89 75 65
267 305 190 243 177 190 162 182 167 175 191 181 173 157 161 159 171 204 215 201 308 286 251 152 175 198 249 277 224 214 206 205 203 205 198 193 188 184 182 180 182 185 184 178 174 172 166 157 157 152 156 154 153 149 143 138 140 143 142 140 132 133 132 129 125 127 124 124 126 127 127 126 125 124 128 131 133 140 134 132 128 123 121 107 104 94
177 227 240 186 215 172 186 195 184 162 166 192 110 150 170 144 165 196 183 201 215 208 267 238 116 235 145 235 273 218 200 208 209 165 107 149 164 171 173 175 179 182 183 176 176 164 163 163 157 156 156 153 152 146 140 141 145 142 139 133 128 124 129 125 125 120 118 118 118 119 121 120 122 126 129 133 138 139 135 130 120 116 111 108 108 102
213 231 261 207 278 166 194 178 134 118 144 193 144 100 123 212 134 178 198 148 209 219 84 159 188 189 183 254 275 260 202 153 137 136 136 148 155 160 172 184 187 185 181 175 169 156 155 160 159 155 154 152 151 147 142 143 147 141 135 129 128 129 130 124 120 117 120 119 118 120 120 123 126 128 125 124 128 130 134 132 125 121 114 110 105 103
169 235 272 167 229 179 186 157 192 146 178 200 130 195 205 132 100 70 31 173 123 52 248 176 334 301 302 329 347 170 163 166 133 141 152 158 165 169 182 187 188 185 178 176 171 161 152 157 157 153 153 152 149 148 146 147 150 138 129 125 119 116 112 115 117 119 119 120 117 117 121 126 128 133 137 138 138 137 134 126 118 115 118 107 104 107
151 240 283 154 203 246 175 169 181 185 140 125 194 210 70 94 111 134 222 2 69 164 246 86 192 254 107 243 355 105 155 168 163 161 166 166 167 180 187 187 187 183 176 175 169 160 152 158 154 149 149 151 149 145 141 142 143 133 128 130 126 126 123 123 122 121 124 121 116 119 119 123 130 132 132 135 137 137 129 116 108 110 104 103 104 104
147 326 242 202 190 185 51 147 184 217 157 177 199 139 141 190 216 301 110 230 132 214 250 324 308 269 194 204 143 176 171 175 176 167 163 176 182 188 183 183 186 176 168 166 163 162 162 167 160 154 149 146 142 140 137 134 134 124 122 128 131 133 131 131 124 118 112 114 117 120 125 127 125 125 127 131 131 131 122 114 112 108 111 101 99 99
1 170 291 235 170 175 141 158 197 200 225 200 89 158 174 126 179 158 202 174 129 227 80 278 39 235 213 218 191 182 184 179 174 176 188 189 190 183 181 181 181 177 174 168 164 165 165 166 161 157 150 148 146 143 140 140 133 126 127 122 117 115 119 119 119 120 117 115 114 114 111 112 122 126 129 131 132 125 117 114 114 115 106 111 102 96
295 141 228 264 228 141 206 195 202 188 189 190 163 187 180 205 216 156 113 143 202 171 172 163 267 275 258 199 193 193 183 181 176 186 193 195 187 183 183 181 179 174 172 169 164 164 161 160 157 153 145 140 142 141 137 142 136 131 129 130 134 132 131 124 125 121 121 118 117 119 123 126 125 124 121 118 120 114 109 108 109 109 117 105 98 103
230 304 216 299 128 195 210 208 190 187 180 176 172 195 178 143 120 167 238 44 98 138 223 128 234 272 265 174 192 196 192 182 187 185 191 193 182 180 180 180 176 172 171 166 161 161 157 153 150 147 140 138 146 148 142 140 135 138 138 140 136 130 135 133 132 128 125 120 121 122 125 125 124 124 122 117 114 109 108 108 111 115 105 99 100 101
162 161 80 281 199 203 206 260 180 159 140 161 173 219 173 140 117 126 185 244 47 226 120 154 134 260 244 210 187 191 187 190 191 188 192 185 178 177 177 176 174 171 167 164 159 159 157 155 153 153 148 149 155 150 143 144 144 143 143 143 145 139 140 136 132 128 125 123 121 120 123 125 125 124 121 116 113 110 110 109 110 111 106 103 99 89
144 266 300 286 291 327 327 355 148 161 136 92 241 113 129 176 177 168 171 184 178 188 118 120 218 256 287 295 252 191 184 207 203 195 180 161 166 170 169 172 169 166 164 157 151 153 156 156 151 151 151 151 157 153 151 151 145 145 148 149 145 140 136 132 132 128 123 119 117 121 123 123 125 121 119 113 115 112 110 109 108 110 105 107 102 97
176 249 154 300 36 82 147 71 85 172 156 174 187 216 182 159 148 151 103 91 168 214 169 133 210 278 270 335 118 113 124 152 170 164 157 159 164 169 171 171 167 162 159 156 154 155 157 157 157 160 159 156 158 158 151 152 153 151 150 150 145 138 137 132 132 128 126 125 124 126 126 127 126 122 115 112 113 112 110 111 109 108 113 108 98 97
179 184 131 209 167 157 181 176 188 179 197 193 183 180 187 161 144 108 185 163 176 252 133 146 222 248 279 343 105 122 117 103 117 136 138 163 167 170 172 167 162 160 162 161 156 157 164 165 160 158 160 158 160 159 157 155 153 151 149 150 145 142 139 136 132 131 128 128 128 132 131 131 127 123 116 114 114 114 113 111 109 107 102 109 103 89
179 138 155 167 167 190 207 209 269 79 91 171 197 161 164 116 143 127 118 122 192 201 180 222 179 225 291 211 152 159 151 159 157 158 164 165 170 174 170 163 163 163 162 163 163 162 159 163 167 166 163 160 159 159 161 158 153 151 149 146 146 144 138 136 133 132 131 134 134 134 136 136 133 124 117 117 117 115 111 110 111 109 106 101 103 101
65 296 247 181 201 200 182 191 203 168 162 197 134 159 134 146 151 136 159 214 171 112 242 268 210 159 234 217 208 179 169 163 174 171 167 164 166 168 168 162 155 155 156 155 157 161 169 172 168 167 167 163 161 160 160 161 158 157 157 154 153 149 141 139 135 136 137 139 138 139 139 138 131 120 118 118 117 113 112 110 107 104 103 100 97 98
203 272 276 163 291 217 219 204 180 157 160 170 163 156 151 166 139 157 215 209 144 169 202 232 180 192 228 206 199 190 175 179 183 183 173 159 149 151 152 157 164 164 164 166 170 171 170 172 172 170 168 165 160 162 161 159 158 152 150 149 154 149 146 141 138 141 142 142 142 144 141 134 126 119 120 121 118 116 114 111 110 108 105 102 99 94
90 254 243 194 215 360 209 276 201 138 124 155 167 173 163 153 183 174 201 195 173 180 195 172 176 211 215 209 199 202 191 175 147 111 119 148 164 163 165 167 168 168 170 173 174 175 176 175 172 171 165 164 166 164 163 163 162 158 155 156 156 148 146 143 146 146 146 146 145 142 139 135 128 124 123 125 124 123 120 117 116 113 108 104 101 100
137 268 224 207 84 285 307 295 32 126 133 144 251 173 164 161 136 155 126 124 346 69 59 152 168 238 255 166 71 50 83 103 129 154 164 165 162 164 168 172 172 175 178 178 177 177 176 174 172 168 169 170 170 170 167 166 160 156 156 158 160 154 153 147 147 148 149 146 145 141 137 134 131 129 130 129 125 125 123 121 119 114 112 109 106 104
98 252 56 33 86 310 345 30 38 57 98 123 144 88 121 136 147 199 167 206 150 187 110 98 151 249 276 74 103 116 132 150 166 168 160 167 171 168 173 175 178 179 179 178 179 176 175 176 176 176 175 171 171 171 169 164 160 160 162 162 164 156 151 146 147 148 148 145 144 142 142 138 134 131 131 131 131 129 126 122 120 118 119 116 110 105
170 152 38 49 75 270 265 37 63 101 93 107 245 211 180 201 219 211 303 144 189 148 115 132 214 221 189 152 130 161 164 175 169 173 173 171 175 177 178 179 181 182 181 180 178 180 181 182 182 177 171 169 173 175 175 167 164 167 162 164 164 151 153 149 150 148 145 147 146 145 142 140 136 134 135 136 134 130 129 126 122 124 125 123 122 112
118 114 137 156 118 246 307 348 13 80 158 238 234 188 152 174 180 152 198 205 201 155 198 190 197 129 134 163 151 169 169 185 188 190 175 169 175 183 186 185 185 184 182 182 183 183 184 179 177 176 175 175 175 175 169 169 172 170 166 161 153 155 154 147 149 148 147 148 149 147 145 142 138 138 139 138 135 133 132 131 132 132 129 123 117 118
138 118 104 149 71 284 337 17 62 188 230 240 281 242 211 162 159 169 223 251 225 139 116 107 116 154 187 186 175 176 188 196 187 161 178 185 172 174 180 185 186 181 183 183 183 183 181 180 176 170 169 172 170 165 155 155 140 131 141 148 151 157 152 151 148 150 151 152 151 148 147 143 140 138 141 141 138 136 135 133 131 133 136 135 138 140
154 113 178 48 76 287 45 38 111 236 236 277 281 199 193 95 113 97 52 351 287 180 212 239 193 200 190 205 207 183 162 107 100 176 185 179 182 180 177 184 184 181 184 186 185 184 179 179 178 175 175 169 164 164 165 164 157 157 162 160 157 153 151 148 150 151 154 155 158 155 152 146 144 143 144 143 142 140 139 139 142 142 141 128 121 117
139 127 85 80 65 144 178 143 208 293 351 355 15 114 168 163 162 153 158 274 196 210 164 212 240 181 188 56 66 88 99 92 108 193 213 192 197 194 185 184 179 186 189 187 183 184 184 179 176 173 164 166 166 162 165 156 155 157 153 155 155 151 151 152 157 160 162 160 161 159 156 152 148 147 148 147 145 145 144 143 142 139 134 127 135 138
182 127 221 104 295 114 114 12 358 25 134 278 244 274 291 212 158 174 105 279 297 251 205 174 208 190 153 114 96 102 95 82 171 241 217 200 189 188 204 210 200 192 184 179 177 171 170 172 167 164 166 165 166 164 158 156 155 152 155 157 157 157 158 163 167 167 166 164 164 160 158 156 151 150 151 151 151 150 147 145 140 144 145 143 146 150
12 90 111 120 204 34 30 113 222 134 241 219 270 277 289 155 166 154 97 208 271 210 199 185 200 201 161 149 143 122 113 154 222 232 199 181 179 184 183 189 188 185 181 176 173 171 168 168 167 165 164 165 167 163 156 157 156 156 162 163 164 164 166 173 170 171 169 165 161 156 156 157 155 152 153 154 153 150 149 153 154 148 140 142 142 152
80 78 70 23 52 92 147 87 281 204 190 274 259 278 312 30 131 93 186 267 258 266 202 174 176 178 197 152 149 149 152 192 225 245 182 181 182 182 181 179 175 175 180 173 174 171 165 158 155 167 170 171 169 159 159 158 161 165 165 168 165 168 175 178 175 165 155 154 156 154 155 158 157 155 155 152 147 149 149 146 140 145 146 148 147 150
96 11 87 180 172 141 92 294 319 314 288 274 280 302 326 283 67 117 198 228 245 250 220 166 164 155 150 157 167 168 204 195 205 221 135 151 141 164 181 176 180 172 168 167 164 152 160 169 172 174 172 170 162 160 162 161 161 166 167 165 169 180 182 169 153 155 156 154 153 154 156 159 159 155 153 149 148 146 144 148 148 146 148 149 150 146
16 101 340 74 96 190 191 84 231 255 243 271 301 283 277 27 162 203 234 194 160 251 288 160 155 164 154 178 198 197 205 181 59 122 145 157 177 181 171 157 145 149 155 159 158 161 165 170 174 170 166 163 160 160 161 163 166 168 166 167 183 186 158 152 156 154 153 158 160 159 160 159 153 151 148 145 141 143 144 147 146 150 151 148 152 159
199 117 187 161 184 61 39 73 22 147 275 227 311 351 50 87 233 209 217 274 195 251 99 327 157 199 165 186 219 232 260 25 71 142 170 170 154 157 160 162 165 167 163 156 164 173 165 168 172 174 167 161 162 163 164 165 167 169 168 178 186 162 154 157 155 155 157 159 160 162 161 157 153 152 150 151 152 146 148 149 148 151 153 154 160 164
205 109 241 264 183 155 123 135 189 211 235 280 96 179 244 185 211 202 130 31 348 166 137 144 267 203 199 187 199 219 217 133 68 146 142 166 166 155 153 152 145 145 156 169 169 169 168 170 170 168 164 161 164 165 166 168 167 168 173 188 163 150 151 151 153 154 158 161 162 161 161 158 157 153 154 154 154 152 148 154 155 156 162 163 164 168
242 162 177 167 216 125 185 212 238 232 227 280 177 249 246 279 200 199 134 146 116 356 176 137 179 211 211 213 215 209 189 200 179 175 162 171 165 163 166 170 170 171 167 164 169 170 172 172 170 165 161 164 165 166 167 170 167 168 181 173 147 157 156 154 154 159 164 165 165 164 160 156 157 158 157 160 157 157 159 158 159 159 169 164 169 170
307 203 239 84 161 218 237 181 320 349 349 324 294 254 249 16 8 56 74 73 295 259 203 143 149 165 185 190 196 259 238 247 166 188 179 167 169 170 155 144 144 150 157 160 165 170 170 162 160 159 161 165 167 166 168 172 171 174 180 157 160 159 155 153 157 164 168 167 164 162 157 157 160 161 162 161 166 165 166 166 170 169 169 172 173 174
287 6 60 100 175 77 130 324 46 123 299 303 301 322 315 169 211 220 197 103 303 303 316 350 144 154 154 149 162 164 174 147 160 165 154 153 154 164 167 168 167 165 165 171 169 158 160 159 158 162 162 164 170 168 172 174 180 178 159 160 160 157 155 158 162 165 164 166 163 160 160 160 163 164 164 164 165 165 166 168 171 170 172 179 178 178
351 115 71 92 95 112 201 218 233 251 244 258 244 215 76 34 51 48 158 168 140 104 65 31 69 81 104 118 149 137 152 157 154 163 160 167 160 154 154 155 156 159 167 160 156 162 156 159 159 161 165 168 171 170 173 176 174 159 153 157 155 154 155 159 164 166 171 166 161 163 165 166 164 162 164 169 166 164 166 170 176 178 183 184 182 178
249 27 151 160 100 308 329 298 272 338 17 354 330 287 267 283 36 35 41 55 57 49 36 44 60 59 108 144 131 124 127 160 157 154 149 147 150 161 167 167 165 161 156 159 166 164 163 159 163 168 168 169 169 168 170 173 161 152 155 158 158 155 158 164 166 166 161 159 158 163 167 165 166 168 166 169 172 177 174 176 183 187 191 197 183 184
51 43 266 79 80 127 179 204 162 122 230 259 310 313 309 316 97 70 40 40 33 42 35 52 37 52 71 63 129 134 137 154 151 153 158 167 167 158 145 146 150 151 155 155 158 164 162 167 162 164 167 166 166 167 168 163 155 157 161 159 160 158 161 162 162 161 162 162 164 163 163 163 168 170 170 169 171 167 166 182 190 189 182 191 201 197
114 188 135 147 156 206 243 229 175 146 157 218 221 302 326 306 82 66 50 36 25 47 83 69 46 33 33 18 63 133 146 155 164 143 139 148 164 164 159 150 149 153 152 153 151 158 161 162 161 159 161 164 165 166 166 161 157 158 162 163 162 164 163 159 159 161 161 163 167 168 167 166 169 174 171 167 162 167 169 143 51 24 245 214 195 197